Regional Weather Roundup
Issued by NWS Green Bay, WI

Home | Current Version | Previous Version | Text Only | Print | Product List | Glossary On
Versions: 1 2 3 4 5 6 7 8 9 10 11 12 13 14 15 16 17 18 19 20 21 22 23 24 25 26 27 28 29 30 31 32 33 34 35 36 37 38 39 40 41 42 43 44 45 46 47 48 49 50
000
ASUS43 KGRB 050410
RWRGRB

NORTH-CENTRAL AND NORTHEAST WISCONSIN REGIONAL WEATHER ROUNDUP
NATIONAL WEATHER SERVICE GREEN BAY WI
1100 PM CDT MON MAY 04 2015

WIZ005-009-010>012-018-019-050500-
NORTH CENTRAL WISCONSIN

CITY           SKY/WX    TMP DP  RH WIND       PRES   REMARKS
IRONWOOD       CLEAR     39  32  75 CALM      30.22S
MANITOWISH WTR CLEAR     40  34  80 CALM      30.24F
ARBOR VITAE    CLEAR     45  27  49 CALM      30.25R
EAGLE RIVER    CLEAR     44  31  60 E5        30.25R
LAND O LAKES   CLEAR     38  32  79 CALM      30.26S
RHINELANDER    PTCLDY    50  28  42 E5        30.26R
PHILLIPS       CLEAR     47  24  39 CALM      30.23R
ANTIGO         PTCLDY    49  40  70 SE6       30.25R
TOMAHAWK       PTCLDY    49  27  42 CALM      30.25R
MERRILL        PTCLDY    54  40  59 E6        30.23S
$$

WIZ013-073-050500-
NORTHEAST WISCONSIN

CITY           SKY/WX    TMP DP  RH WIND       PRES   REMARKS
IRON MOUNTAIN  PTCLDY    47  37  68 CALM      30.25R
MARINETTE      MOCLDY    46  36  66 E5        30.27R
OCONTO         PTCLDY    50  35  56 E3        30.26R
$$

WIZ017-030-035>037-045-050500-
CENTRAL WISCONSIN

CITY           SKY/WX    TMP DP  RH WIND       PRES   REMARKS
MEDFORD        PTCLDY    51  29  42 NE8       30.21S
WAUSAU         CLEAR     53  41  63 E8        30.21R
MOSINEE        CLEAR     52  39  62 E8        30.23S
MARSHFIELD     PTCLDY    55  39  54 E10       30.20R
WISC RAPIDS      N/A     55  40  56 E9        30.21R
STEVENS POINT  PTCLDY    51  40  64 E5        30.23R
WAUPACA        PTCLDY    56  41  56 E6        30.22S
SHAWANO        PTCLDY    53  40  59 E6        30.25S
CLINTONVILLE   MOCLDY    52  39  62 NE5       30.24R
$$

WIZ038-039-048-051-050500-
FOX VALLEY

CITY           SKY/WX    TMP DP  RH WIND       PRES   REMARKS
NWS GREEN BAY  PTCLDY    54  36  50 E10       30.24R
APPLETON       MOCLDY    55  36  47 E8        30.23R
OSHKOSH        MOCLDY    55  39  54 E3        30.22R
FOND DU LAC    MOCLDY    54  33  45 E5        30.21R
$$

WIZ022-050-052-050500-
EAST CENTRAL WISCONSIN

CITY           SKY/WX    TMP DP  RH WIND       PRES   REMARKS
STURGEON BAY   MOCLDY    48  32  53 E6        30.28R
MANITOWOC      PTCLDY    51  35  54 N5        30.24S
SHEBOYGAN      MOCLDY    45  35  68 NE6       30.22S
$$

LMZ563-521-522-541>543-050500-
LAKESHORE

STATION/POSITION TIME  TEMP    WIND        PRES    VSBY  WAVE
                       AIR SEA DIR/SP/G                  HT/PER
                 (UTC) (F)     (DEG/KT/KT) (MB)    (MI)  (FT/S)
SHEBOYGAN LKSHOR 0400   49      30/ 14/ 16 1023.7R
KEWAUNEE LKSHORE 0400   47      50/  7/  9 1023.5R
NORTHPORT PIER   0400   46     150/  5/  6 1024.7R
SISTER BAY LKSHO 0400   45        CALM       N/A
CHAMBERS ISLAND  0400   50      90/  6/  9 1024.7R
MENOMINEE LKSHOR 0400   50     100/  7/  9 1025.3R
$$



USA.gov is the U.S. government's official web portal to all federal, state and local government web resources and services.